Location: Diamond Heights Village
(37.7458°N, 122.4416°W)
Time: 11:08:26
(UTC+00:00)

Daily predictions for brighter satellites

Satellite Brightness Start Highest point End
(mag) Time Altitude Azimuth Time Altitude Azimuth Time Altitude Azimuth
NOSS 3-4 (A) 4.1 12:21:03 48° ENE 12:21:03 48° ENE 12:25:53 10° NE
NOSS 3-4 (C) 4.1 12:21:06 49° ENE 12:21:06 49° ENE 12:25:59 10° NE
CENTAUR R/B 4.0 12:21:47 28° N 12:25:48 44° NE 12:34:02 10° ESE
NOSS 3-2 (A) 4.1 12:27:08 64° N 12:28:25 75° ENE 12:36:56 10° SE
Cosmos 2154 Rocket 4.4 12:36:22 55° SSE 12:36:22 55° SSE 12:41:08 10° S
Cosmos 2322 Rocket 3.6 12:33:27 10° SSE 12:38:31 35° ESE 12:43:38 10° NE
Cosmos 2263 Rocket 3.4 12:42:06 26° NNE 12:44:38 39° ENE 12:49:54 10° SE
BREEZE-M DEB (TANK) 3.8 12:46:29 65° W 12:47:25 72° SW 12:51:40 10° SE
ATLAS 2AS CENTAUR R/B 2.9 12:53:15 62° W 12:54:20 69° NW 13:02:21 10° NNE
ALOS 3.7 12:51:19 10° NNE 12:55:39 37° E 12:59:57 10° SSE
Meteor 2-17 Rocket 4.3 12:53:31 36° N 12:56:09 86° E 13:02:12 10° S
Meteor 1-21 Rocket 4.2 12:56:20 42° N 12:58:27 86° ENE 13:04:23 10° S
Centaur D-1A AC-32 4.1 13:01:53 17° S 13:01:53 17° S 13:04:04 10° SE
USA 238 DEB 3.8 13:07:02 54° W 13:08:10 60° WSW 13:15:28 10° SSE
USA 238 3.8 13:07:05 54° W 13:08:16 60° WSW 13:15:35 10° SSE
Genesis I 4.2 13:10:00 42° NE 13:10:03 42° NE 13:13:40 10° SE
Cosmos 1908 4.0 13:08:41 10° S 13:12:29 52° E 13:16:18 10° NNE
Cosmos 1825 Rocket 3.8 13:13:30 56° S 13:13:30 56° S 13:16:58 10° S
Cosmos 972 Rocket 4.0 13:12:19 50° NNW 13:13:50 76° WSW 13:19:06 10° S
Gbstr 26 Del rocket 4.2 13:12:36 52° W 13:14:04 62° NNW 13:21:51 10° NE
BREEZE-M DEB (TANK) 4.2 13:16:21 25° N 13:16:36 25° N 13:22:48 10° NE
FENGYUN 3A 4.0 13:14:00 10° NNE 13:19:24 67° ESE 13:24:46 10° S
Abrixas rocket 3.8 13:20:49 31° ESE 13:20:49 31° ESE 13:22:33 10° ESE
RESURS DK-1 3.2 13:15:51 10° S 13:19:50 50° ESE 13:23:51 10° NE
Cosmos 2058 Rocket 3.4 13:16:22 10° S 13:20:42 63° E 13:25:01 10° NNE
Okean O Rocket 3.3 13:16:51 10° NNE 13:20:53 34° E 13:24:53 10° SSE
SL-16 R/B 2.0 13:16:40 19° SSW 13:20:54 83° WNW 13:26:36 10° NNE
Cosmos 2344 4.4 13:21:02 28° NW 13:21:14 28° NW 13:28:06 10° NNE
Cosmos 2360 Rocket 3.4 13:18:25 10° S 13:23:42 42° ESE 13:29:01 10° NE
STARLINK 1063 4.4 13:23:42 30° S 13:25:22 49° SE 13:29:22 10° ENE
Cosmos 1726 Rocket 3.4 13:23:10 10° SSW 13:27:35 66° W 13:31:58 10° N
SL-8 Rocket 4.0 13:22:11 10° N 13:28:23 84° E 13:34:32 10° S
Lacrosse 5 1.8 13:28:03 54° W 13:28:45 60° NW 13:33:47 10° NE
STARLINK 1064 4.2 13:28:25 29° SSW 13:30:15 54° SE 13:34:19 10° ENE
Cosmos 1980 Rocket 4.0 13:32:58 16° NNW 13:32:58 16° NNW 13:34:39 10° N
Cosmos 2181 Rocket 3.9 13:25:59 10° SSW 13:32:11 73° W 13:38:31 10° N
COSMO-SKYMED 1 2.4 13:29:30 10° SSE 13:33:49 84° WSW 13:36:54 19° NNW
Cosmos 2228 4.5 13:36:17 23° NNW 13:36:17 23° NNW 13:38:08 10° N
STARLINK 1041 4.0 13:33:14 28° SSW 13:35:16 61° SE 13:39:22 10° NE
STARLINK-60 4.4 13:36:18 30° N 13:36:59 33° NE 13:40:03 10° ESE
SL-4 R/B 3.5 13:39:14 18° SSW 13:39:14 18° SSW 13:40:41 10° S
CZ-4B R/B 3.9 13:33:44 10° NNE 13:39:08 55° E 13:44:23 10° S
STARLINK 1038 3.8 13:38:01 26° SSW 13:40:12 68° SE 13:44:20 10° NE
Meteor 1-16 Rocket 4.4 13:34:47 10° SSW 13:40:31 51° WNW 13:46:12 10° N
COSMOS 2455 4.2 13:41:54 20° NW 13:41:54 20° NW 13:45:18 10° N
ATLAS 2A CENTAUR R/B 3.8 13:39:48 10° S 13:42:05 16° SE 13:46:09 10° ESE
Cosmos 1703 3.1 13:41:51 23° NNW 13:44:11 72° W 13:48:04 10° S
STARLINK 1046 3.7 13:42:50 24° SW 13:45:13 76° SE 13:49:22 10° NE
Cosmos 158 Rocket 3.8 13:41:21 10° SSW 13:46:08 57° WNW 13:51:00 10° N
Cosmos 2341 Rocket 4.1 13:41:32 10° NNW 13:47:28 48° W 13:53:22 10° SSW
STARLINK 1039 3.6 13:47:35 22° SW 13:50:09 84° SE 13:54:19 10° NE
STARLINK 1045 3.5 13:52:22 20° SW 13:55:07 88° NW 13:59:17 10° NE
ATLAS 3B R/B 2.7 13:51:26 12° NNW 13:57:44 85° WSW 14:04:44 10° SSE
ADEOS Rocket 3.7 13:53:13 10° SE 13:58:27 49° ENE 14:03:56 10° N
USA 32 4.3 13:53:57 10° NNW 13:58:54 43° W 14:03:50 10° SSW
STARLINK 1050 3.5 13:57:24 20° SW 14:00:14 77° NW 14:04:23 10° NE
NOSS 3-2 (C) 4.4 13:55:07 18° NW 14:00:55 48° WSW 14:08:59 10° S
Cosmos 1340 Rocket 4.4 13:58:21 10° SSE 14:01:57 37° E 14:05:34 10° NNE
USA 116 3.9 13:58:49 10° S 14:03:27 70° WSW 14:07:34 10° NNW
PAYLOAD B 4.2 13:59:08 10° N 14:04:41 63° WNW 14:10:11 10° SSW
Cosmos 864 Rocket 4.5 13:58:49 10° NNW 14:04:59 66° W 14:11:11 10° S
STARLINK 1055 3.5 14:02:09 18° WSW 14:05:11 70° NW 14:09:20 10° NE
USA 215 3.7 14:02:24 10° ESE 14:08:46 59° NE 14:15:10 10° NW
METEOR-M 4.5 14:04:37 10° N 14:09:38 42° WNW 14:14:36 10° SW
BREEZE-M DEB (TANK) 4.1 14:06:36 10° SW 14:09:43 73° SE 14:18:07 10° NE
STARLINK 1022 3.6 14:06:55 16° WSW 14:10:10 63° NW 14:14:17 10° NE
NOSS 3-4 (A) 4.4 14:08:33 20° WNW 14:11:07 26° NW 14:16:17 10° NNE
NOSS 3-4 (C) 4.4 14:08:36 19° WNW 14:11:12 26° NW 14:16:24 10° NNE
Cosmos 2218 Rocket 4.1 14:05:29 10° NNW 14:11:38 52° W 14:17:41 10° SSW
STARLINK 1042 3.7 14:11:42 14° WSW 14:15:08 57° NW 14:19:14 10° NE
CENTAUR R/B 3.5 14:08:59 11° NW 14:16:45 49° WSW 14:25:03 10° S
STARLINK 1056 3.8 14:16:29 12° WSW 14:20:09 52° NW 14:24:12 10° NE
BREEZE M DEB (TANK) 4.4 14:09:00 13° WNW 14:20:21 43° N 14:24:22 10° E
Alouette 2 Rocket 3.4 14:16:32 10° S 14:21:19 89° W 14:25:00 10° N
Cosmos 1371 Rocket 4.3 14:17:24 10° NNW 14:22:28 46° WSW 14:27:34 10° S
Cosmos 2322 Rocket 2.9 14:17:36 10° WSW 14:22:32 30° WNW 14:27:33 10° N
Meteor 1-11 4.5 14:17:30 10° NNW 14:22:51 46° W 14:28:14 10° SSW
STARLINK 1054 3.9 14:21:15 11° WSW 14:25:07 48° NW 14:29:08 10° NE
Meteor 2-12 Rocket 4.4 14:20:43 10° NNW 14:26:48 72° W 14:32:53 10° S
NOAA 6 4.3 14:22:43 10° N 14:27:40 46° WNW 14:32:35 10° SW
Cosmos 2263 Rocket 3.1 14:23:51 11° NW 14:28:19 27° WSW 14:32:59 10° SSW
Cosmos 1812 Rocket 3.5 14:24:06 10° S 14:28:28 81° W 14:32:53 10° N
Cosmos 1437 2.6 14:26:32 10° N 14:29:34 83° E 14:32:35 10° S
STARLINK 1062 4.0 14:26:06 10° WSW 14:30:04 44° NW 14:34:03 10° NE
Helios 1A Rocket 3.1 14:26:47 10° N 14:30:47 48° WNW 14:34:46 10° SSW
Cosmos 1300 2.9 14:27:33 10° SSW 14:31:14 48° W 14:34:57 10° N
Cosmos 1420 Rocket 4.1 14:26:54 10° NNW 14:32:14 83° ENE 14:37:33 10° SSE
ALOS 3.5 14:29:24 10° NNW 14:32:47 20° WNW 14:36:09 10° WSW
STARLINK 1053 4.1 14:31:13 10° WSW 14:35:08 40° NW 14:39:04 10° NE
FALCON 9 DEB 3.3 14:33:43 10° NW 14:37:13 77° NE 14:40:43 10° SE
H-2A R/B 2.8 14:34:33 10° N 14:38:24 61° WNW 14:42:12 10° SSW
Cosmos 1844 Rocket 3.0 14:34:24 10° NNW 14:40:04 74° ENE 14:45:42 10° SSE
STARLINK 1061 4.2 14:36:16 10° WSW 14:40:08 37° NW 14:44:00 10° NE
Cosmos 2333 Rocket 2.7 14:36:52 10° S 14:42:35 69° ESE 14:48:19 10° NNE
Cosmos 1455 3.9 14:40:43 10° SSE 14:44:18 38° E 14:47:55 10° NNE
IRS-1C Rocket 4.1 14:39:14 10° NNE 14:44:31 89° WNW 14:49:48 10° SSW
STARLINK 1067 4.3 14:41:19 10° W 14:45:06 34° NW 14:48:56 10° NNE
CZ-4 R/B 4.0 14:42:11 10° NE 14:45:48 27° E 14:49:22 10° SSE
ATLAS 2AS CENTAUR R/B 4.3 14:41:19 10° WNW 14:46:51 20° NNW 14:52:22 10° N
YAOGAN 6 3.3 14:46:20 10° NNE 14:49:48 57° E 14:53:13 10° S
STARLINK 1058 4.5 14:46:19 10° W 14:50:04 32° NNW 14:53:49 10° NNE
